• In Romania
  • List of Countries
  • For 7 days
  • Water Temperature
  • Satellite Maps
  • Weather Map
  • Weather Widgets
  • user-avatar
    Login

    Hourly Weather Salgotarjan

    Today, 21 February, Wednesday

    Time Temperature Precipitation Wind Pressure Humidity
    00:00 -2°C° 0.3 mm 2 mps 729 mmHg 92%
    01:00 -2°C° 0.3 mm 2 mps 729 mmHg 93%
    02:00 -2°C° 0.2 mm 2 mps 729 mmHg 93%
    03:00 -2°C° 0.2 mm 2 mps 729 mmHg 93%
    04:00 -2°C° 0.2 mm 2 mps 729 mmHg 93%
    05:00 -2°C° 0.1 mm 2 mps 729 mmHg 92%
    06:00 -2°C° 0.1 mm 2 mps 729 mmHg 92%
    07:00 -2°C° 0.1 mm 2 mps 729 mmHg 91%
    08:00 -1°C° 0 mm 2 mps 730 mmHg 89%
    09:00 -1°C° 0 mm 2 mps 730 mmHg 88%
    10:00 +1°C° 0 mm 2 mps 730 mmHg 86%
    11:00 +2°C° 0 mm 2 mps 730 mmHg 85%
    12:00 +2°C° 0 mm 2 mps 730 mmHg 84%
    13:00 +3°C° 0 mm 2 mps 730 mmHg 82%
    14:00 +3°C° 0 mm 2 mps 730 mmHg 84%
    15:00 +2°C° 0 mm 2 mps 730 mmHg 85%
    16:00 +2°C° 0 mm 2 mps 730 mmHg 87%
    17:00 +1°C° 0.1 mm 2 mps 730 mmHg 87%
    18:00 -1°C° 0.1 mm 2 mps 730 mmHg 87%
    19:00 -1°C° 0.1 mm 2 mps 730 mmHg 87%
    20:00 -2°C° 0 mm 2 mps 730 mmHg 85%
    21:00 -2°C° 0 mm 3 mps 730 mmHg 84%
    22:00 -4°C° 0 mm 3 mps 730 mmHg 82%
    23:00 -4°C° 0 mm 3 mps 730 mmHg 82%

    Tomorrow, 22 February, Thursday

    Time Temperature Precipitation Wind Pressure Humidity
    00:00 -4°C° 0 mm 3 mps 730 mmHg 81%
    01:00 -5°C° 0 mm 3 mps 730 mmHg 81%
    02:00 -5°C° 0 mm 3 mps 730 mmHg 81%
    03:00 -5°C° 0 mm 3 mps 730 mmHg 80%
    04:00 -5°C° 0 mm 3 mps 729 mmHg 80%
    05:00 -5°C° 0 mm 3 mps 729 mmHg 80%
    06:00 -5°C° 0 mm 3 mps 729 mmHg 79%
    07:00 -5°C° 0 mm 3 mps 729 mmHg 79%
    08:00 -4°C° 0 mm 4 mps 730 mmHg 76%
    09:00 -3°C° 0 mm 4 mps 730 mmHg 74%
    10:00 -2°C° 0 mm 4 mps 730 mmHg 71%
    11:00 -1°C° 0 mm 4 mps 730 mmHg 71%
    12:00 0°C° 0 mm 4 mps 730 mmHg 71%
    13:00 +1°C° 0 mm 4 mps 730 mmHg 70%
    14:00 0°C° 0 mm 4 mps 730 mmHg 72%
    15:00 +1°C° 0 mm 3 mps 730 mmHg 74%
    16:00 +1°C° 0 mm 3 mps 730 mmHg 76%
    17:00 0°C° 0.1 mm 3 mps 730 mmHg 77%
    18:00 -1°C° 0.1 mm 3 mps 730 mmHg 79%
    19:00 -2°C° 0.1 mm 3 mps 730 mmHg 81%
    20:00 -2°C° 0.1 mm 3 mps 730 mmHg 81%
    21:00 -2°C° 0.1 mm 3 mps 730 mmHg 82%
    22:00 -2°C° 0.1 mm 3 mps 730 mmHg 82%
    23:00 -2°C° 0 mm 3 mps 730 mmHg 82%

    Day after tomorrow, 23 February, Friday

    Time Temperature Precipitation Wind Pressure Humidity
    00:00 -4°C° 0 mm 3 mps 730 mmHg 82%
    01:00 -3°C° 0 mm 2 mps 730 mmHg 82%
    02:00 -3°C° 0 mm 2 mps 730 mmHg 82%
    03:00 -3°C° 0 mm 2 mps 730 mmHg 82%
    04:00 -3°C° 0 mm 2 mps 730 mmHg 82%
    05:00 -3°C° 0 mm 2 mps 730 mmHg 81%
    06:00 -3°C° 0 mm 2 mps 731 mmHg 81%
    07:00 -5°C° 0 mm 3 mps 731 mmHg 80%
    08:00 -2°C° 0 mm 3 mps 731 mmHg 76%
    09:00 -1°C° 0 mm 3 mps 731 mmHg 72%
    10:00 0°C° 0 mm 3 mps 732 mmHg 69%
    11:00 +1°C° 0 mm 3 mps 732 mmHg 68%
    12:00 +1°C° 0 mm 3 mps 732 mmHg 67%
    13:00 +2°C° 0 mm 3 mps 732 mmHg 66%
    14:00 +2°C° 0 mm 3 mps 732 mmHg 68%
    15:00 +1°C° 0 mm 3 mps 732 mmHg 70%
    16:00 +1°C° 0 mm 3 mps 732 mmHg 72%
    17:00 0°C° 0 mm 3 mps 732 mmHg 73%
    18:00 -1°C° 0 mm 3 mps 732 mmHg 75%
    19:00 -4°C° 0 mm 3 mps 733 mmHg 77%
    20:00 -4°C° 0 mm 4 mps 733 mmHg 76%
    21:00 -5°C° 0 mm 4 mps 733 mmHg 75%
    22:00 -5°C° 0 mm 4 mps 733 mmHg 74%
    23:00 -5°C° 0 mm 4 mps 733 mmHg 73%

    24 February, Saturday

    Time Temperature Precipitation Wind Pressure Humidity
    00:00 -6°C° 0 mm 3 mps 733 mmHg 73%
    01:00 -6°C° 0 mm 3 mps 733 mmHg 73%
    02:00 -6°C° 0 mm 3 mps 733 mmHg 72%
    03:00 -6°C° 0 mm 3 mps 733 mmHg 71%
    04:00 -7°C° 0 mm 3 mps 733 mmHg 70%
    05:00 -8°C° 0 mm 4 mps 733 mmHg 69%
    06:00 -8°C° 0 mm 4 mps 734 mmHg 67%
    07:00 -8°C° 0 mm 4 mps 734 mmHg 66%
    08:00 -7°C° 0 mm 4 mps 734 mmHg 60%
    09:00 -6°C° 0 mm 5 mps 734 mmHg 54%
    10:00 -6°C° 0 mm 5 mps 734 mmHg 48%
    11:00 -5°C° 0 mm 5 mps 734 mmHg 45%
    12:00 -5°C° 0 mm 6 mps 734 mmHg 43%
    13:00 -4°C° 0 mm 6 mps 734 mmHg 41%
    14:00 -5°C° 0 mm 6 mps 734 mmHg 42%
    15:00 -5°C° 0 mm 6 mps 733 mmHg 43%
    16:00 -6°C° 0 mm 6 mps 733 mmHg 45%
    17:00 -6°C° 0 mm 6 mps 733 mmHg 47%
    18:00 -8°C° 0 mm 6 mps 734 mmHg 49%
    19:00 -9°C° 0 mm 6 mps 734 mmHg 51%
    20:00 -9°C° 0 mm 6 mps 734 mmHg 52%
    21:00 -10°C° 0 mm 6 mps 734 mmHg 53%
    22:00 -10°C° 0 mm 6 mps 734 mmHg 53%
    23:00 -11°C° 0 mm 5 mps 734 mmHg 54%

    25 February, Sunday

    Time Temperature Precipitation Wind Pressure Humidity
    00:00 -11°C° 0 mm 5 mps 734 mmHg 54%
    01:00 -11°C° 0 mm 5 mps 734 mmHg 55%
    02:00 -12°C° 0 mm 5 mps 734 mmHg 55%
    03:00 -12°C° 0 mm 6 mps 734 mmHg 55%
    04:00 -14°C° 0 mm 6 mps 734 mmHg 55%
    05:00 -14°C° 0 mm 6 mps 734 mmHg 55%
    06:00 -14°C° 0 mm 6 mps 734 mmHg 55%
    07:00 -13°C° 0 mm 5 mps 734 mmHg 55%
    08:00 -14°C° 0 mm 6 mps 734 mmHg 51%
    09:00 -12°C° 0 mm 6 mps 735 mmHg 48%
    10:00 -11°C° 0 mm 6 mps 735 mmHg 45%
    11:00 -11°C° 0 mm 6 mps 735 mmHg 44%
    12:00 -10°C° 0 mm 6 mps 734 mmHg 42%
    13:00 -9°C° 0 mm 6 mps 734 mmHg 41%
    14:00 -10°C° 0 mm 6 mps 734 mmHg 42%
    15:00 -10°C° 0 mm 6 mps 734 mmHg 43%
    16:00 -10°C° 0 mm 6 mps 734 mmHg 44%
    17:00 -11°C° 0 mm 6 mps 734 mmHg 46%
    18:00 -11°C° 0 mm 6 mps 734 mmHg 49%
    19:00 -12°C° 0 mm 6 mps 734 mmHg 51%
    20:00 -12°C° 0 mm 6 mps 734 mmHg 52%
    21:00 -14°C° 0 mm 6 mps 734 mmHg 53%
    22:00 -14°C° 0 mm 6 mps 734 mmHg 53%
    23:00 -14°C° 0 mm 6 mps 734 mmHg 54%

    26 February, Monday

    Time Temperature Precipitation Wind Pressure Humidity
    00:00 -13°C° 0 mm 5 mps 734 mmHg 54%
    01:00 -14°C° 0 mm 5 mps 734 mmHg 55%
    02:00 -14°C° 0 mm 5 mps 733 mmHg 55%
    03:00 -14°C° 0 mm 5 mps 733 mmHg 56%
    04:00 -14°C° 0 mm 5 mps 733 mmHg 56%
    05:00 -14°C° 0 mm 5 mps 733 mmHg 56%
    06:00 -15°C° 0 mm 5 mps 733 mmHg 56%
    07:00 -15°C° 0 mm 5 mps 733 mmHg 56%
    08:00 -14°C° 0 mm 5 mps 732 mmHg 52%
    09:00 -13°C° 0 mm 5 mps 732 mmHg 49%
    10:00 -12°C° 0 mm 5 mps 732 mmHg 45%
    11:00 -11°C° 0 mm 5 mps 732 mmHg 44%
    12:00 -11°C° 0 mm 5 mps 732 mmHg 44%
    13:00 -10°C° 0 mm 5 mps 731 mmHg 43%
    14:00 -10°C° 0 mm 5 mps 731 mmHg 44%
    15:00 -10°C° 0 mm 5 mps 731 mmHg 46%
    16:00 -10°C° 0 mm 5 mps 730 mmHg 48%
    17:00 -11°C° 0 mm 5 mps 730 mmHg 50%
    18:00 -11°C° 0 mm 5 mps 730 mmHg 52%
    19:00 -12°C° 0 mm 5 mps 730 mmHg 55%
    20:00 -12°C° 0 mm 5 mps 730 mmHg 55%
    21:00 -13°C° 0 mm 5 mps 730 mmHg 56%
    22:00 -12°C° 0 mm 4 mps 730 mmHg 56%
    23:00 -12°C° 0 mm 4 mps 729 mmHg 57%
    Show more